GEFSSGP_con_prob3kmehi_000.txt.gz
EHI
0 0 0 0 0 0 0 0 0 0 0 0 0 0 0 0 0 0 0 0 3 5 5 10 23 31 34 31 30 31 28 19 12 6 1 0 0 0 0 0 0 0 0 0 0 0 0 0 0
0 0 0 0 0 0 0 0 0 0 0 0 0 0 0 0 0 0 0 0 6 10 6 6 17 34 49 56 58 56 45 31 19 10 3 0 0 0 0 0 0 0 0 0 0 0 0 0 0
0 0 0 0 0 0 0 0 0 0 0 0 0 0 0 0 0 0 0 2 11 18 10 7 19 36 54 70 79 78 64 43 26 15 7 2 0 0 0 0 0 0 0 0 0 0 0 0 0
0 0 0 0 0 0 0 0 0 0 0 0 0 0 0 0 0 0 0 5 21 31 24 28 45 48 48 54 64 68 59 41 25 14 8 3 0 0 0 0 0 0 0 0 0 0 0 0 0
0 0 0 0 0 0 0 0 0 0 0 0 0 0 0 0 0 0 0 7 31 50 52 63 77 71 54 42 39 40 38 29 18 10 4 1 0 0 0 0 0 0 0 0 0 0 0 0 0
0 0 0 0 0 0 0 0 0 0 0 0 0 0 0 0 0 0 0 8 36 65 79 84 87 79 65 48 30 21 20 19 14 8 3 0 0 0 0 0 0 0 0 0 0 0 0 0 0
0 0 0 0 0 0 0 0 0 0 0 0 0 0 0 0 0 0 1 9 36 69 83 78 68 62 63 58 39 18 11 15 16 13 8 4 2 0 0 0 0 0 0 0 0 0 0 0 0
0 0 0 0 0 0 0 0 0 0 0 0 0 0 0 0 0 1 2 8 29 55 65 58 49 51 61 68 56 33 19 19 25 25 19 12 6 2 0 0 0 0 0 0 0 0 0 0 0
0 0 0 0 0 0 0 0 0 0 0 0 0 0 1 1 3 4 4 4 12 27 37 40 45 57 71 79 75 60 44 38 43 45 39 32 23 13 6 3 1 0 0 0 0 0 0 0 0
0 0 0 0 0 0 0 0 0 0 0 0 2 5 8 9 8 8 6 2 1 6 14 25 42 63 81 89 88 81 72 64 65 67 62 56 47 34 23 15 11 9 7 2 0 0 0 0 0
0 0 0 0 0 0 0 0 1 1 0 0 8 22 26 21 15 13 9 3 0 0 3 10 27 54 78 87 84 79 79 77 74 74 72 67 59 45 36 34 36 38 27 11 2 0 0 0 1
0 0 0 0 0 0 0 0 1 1 0 3 22 49 50 31 22 18 13 7 3 1 0 3 15 36 57 66 59 56 66 74 70 69 71 71 63 47 34 34 46 52 38 16 4 2 1 2 3
0 0 0 0 0 0 0 0 1 1 0 7 33 62 63 47 40 37 31 26 17 7 3 6 14 25 37 40 33 30 40 50 51 52 61 70 71 59 37 25 30 33 21 9 4 3 5 6 6
0 0 0 0 0 0 0 0 0 1 7 22 45 63 68 65 62 63 63 60 49 33 20 15 19 25 28 25 16 11 13 17 19 24 34 48 60 65 51 29 18 11 4 2 2 3 5 7 5
0 0 0 0 0 0 0 0 5 16 34 55 69 74 77 76 71 71 76 82 80 71 54 37 30 28 23 15 6 2 0 0 1 3 9 17 29 42 43 29 13 6 2 1 1 1 2 3 2
0 0 0 0 0 0 0 5 23 51 73 86 90 89 86 81 74 65 64 74 85 89 80 62 40 23 15 7 2 0 0 0 0 0 1 3 8 13 16 12 5 3 3 2 0 0 0 0 0
0 0 0 0 0 0 4 21 53 81 93 95 94 88 82 76 70 63 57 61 73 77 72 57 31 13 6 3 1 0 0 1 0 0 1 2 1 1 1 1 1 1 2 1 0 0 0 0 0
0 0 0 0 0 0 8 37 70 87 91 92 91 82 71 62 54 51 50 50 52 48 41 34 23 12 6 2 0 0 0 0 0 0 0 1 0 0 0 0 0 0 0 0 0 0 0 0 0
0 0 0 0 0 0 6 27 51 64 73 83 84 72 58 45 33 27 26 26 26 22 20 22 22 16 8 2 0 0 0 0 0 0 0 0 0 0 0 0 0 0 0 0 0 0 0 0 0
0 0 0 0 0 0 1 8 17 30 53 75 78 64 46 29 14 7 5 5 6 9 10 12 12 10 7 6 6 4 1 0 0 0 0 0 0 0 0 0 0 0 0 0 1 1 1 0 0
0 0 0 0 0 0 0 0 2 15 42 68 72 56 36 15 3 1 0 0 1 2 3 2 2 3 5 10 13 9 2 0 0 0 0 0 0 0 0 0 0 0 0 0 3 9 10 5 1
0 0 0 0 0 0 0 0 1 10 30 49 53 40 20 6 0 0 0 0 0 0 1 1 1 1 3 8 11 7 3 0 0 0 0 0 0 0 0 0 0 0 0 0 4 14 20 11 4
0 0 0 0 0 0 0 0 0 3 11 20 23 16 6 0 0 0 0 0 0 0 1 1 1 0 1 2 3 3 2 0 0 0 0 0 0 0 0 0 0 0 0 0 2 10 15 10 4
0 0 0 0 0 0 0 0 0 0 1 2 4 3 1 0 0 0 0 0 0 0 1 1 0 0 0 0 0 1 1 0 0 0 0 0 0 0 0 0 0 0 0 0 0 3 5 4 2
0 0 0 0 0 0 0 0 0 0 0 0 0 0 0 0 0 0 0 0 0 0 0 0 0 0 0 0 0 0 0 0 0 0 0 0 0 0 0 0 0 0 0 0 0 0 1 1 0
0 0 0 0 0 0 0 0 0 0 0 0 0 0 0 0 0 0 0 0 0 0 0 0 0 0 0 0 0 0 0 0 0 0 0 0 0 0 0 0 0 0 0 0 0 0 0 0 0
0 0 0 0 0 0 0 0 0 0 0 0 0 0 0 0 0 0 0 0 0 0 0 0 0 0 0 0 0 0 0 0 0 0 0 0 0 0 0 0 0 0 0 0 0 0 0 0 0
0 0 0 0 0 0 0 0 0 0 0 0 0 0 0 0 0 0 0 0 0 0 0 0 0 0 0 0 0 0 0 0 0 0 0 0 0 0 0 0 0 0 0 0 0 0 0 0 0
0 0 0 0 0 0 0 0 0 0 0 0 0 0 0 0 0 0 0 0 0 0 0 0 0 0 0 0 0 0 0 0 0 0 0 0 0 0 0 0 0 0 0 0 0 0 0 0 0
0 0 0 0 0 0 0 0 0 0 0 0 0 0 0 0 0 0 0 0 0 0 0 0 0 0 0 0 0 0 0 0 0 0 0 0 0 0 0 0 0 0 0 0 0 0 0 0 0

GEFSSGP_con_prob3kmehi_006.txt.gz
EHI
0 0 0 0 0 0 0 0 0 0 0 0 0 0 0 0 0 0 0 0 0 0 0 0 0 0 0 1 2 6 8 7 4 1 0 0 0 0 0 0 0 0 0 0 0 0 0 0 0
0 0 0 0 0 0 0 0 0 0 0 0 0 0 0 0 0 0 0 0 0 0 0 0 0 0 0 0 2 7 10 8 3 1 0 0 0 0 0 0 0 0 0 0 0 0 0 0 0
0 0 0 0 0 0 0 0 0 0 0 0 0 0 0 0 0 0 0 0 0 0 0 0 0 0 0 0 1 4 7 7 3 1 0 0 0 0 0 0 0 0 0 0 0 0 0 0 0
0 0 0 0 0 0 0 0 0 0 0 0 0 0 0 0 0 0 0 0 0 0 0 1 1 1 1 1 1 2 4 4 3 1 0 0 0 0 0 0 0 0 0 0 0 0 0 0 0
0 0 0 0 0 0 0 0 0 0 0 0 0 0 0 0 0 0 0 0 0 0 1 3 4 2 2 3 4 4 3 3 3 2 1 0 0 1 1 0 0 0 0 0 0 0 0 0 0
0 0 0 0 0 0 0 0 0 0 0 0 0 0 0 0 0 0 0 0 0 0 2 5 5 3 3 4 6 5 3 3 2 2 1 0 0 1 1 0 0 0 0 0 0 0 0 0 0
0 0 0 0 0 0 0 0 0 0 0 0 0 0 0 0 0 0 0 0 0 0 1 2 3 3 2 4 9 11 9 7 5 4 2 1 1 1 1 0 0 0 0 0 0 0 0 0 0
0 0 0 0 0 0 0 0 0 0 0 0 0 0 4 8 5 1 0 0 0 0 0 0 1 3 2 7 19 30 33 29 21 15 11 6 2 1 1 2 3 3 1 0 0 0 0 0 0
0 0 0 0 0 0 0 0 0 0 0 0 0 0 9 18 12 2 0 0 0 0 0 0 1 2 1 7 23 37 45 43 30 21 20 13 4 1 3 9 17 14 4 0 0 0 0 0 0
0 0 0 0 0 0 0 0 0 0 0 0 1 3 10 16 12 3 0 0 0 0 0 0 0 0 0 4 12 20 25 26 19 14 18 15 5 1 4 17 30 21 4 0 0 0 0 0 0
0 0 0 0 0 0 0 0 0 0 0 0 5 14 17 12 6 2 0 0 0 0 0 0 0 0 0 1 2 3 6 8 8 6 14 23 20 11 11 26 32 19 6 2 2 2 1 0 1
0 0 0 0 0 0 0 0 0 0 0 1 11 28 31 18 7 2 0 1 2 3 2 1 0 0 0 1 1 2 3 5 6 6 15 36 43 32 28 36 33 21 12 7 6 5 1 0 1
0 0 0 0 0 0 0 0 0 0 0 4 18 38 43 35 29 23 14 9 11 15 13 9 6 4 4 5 5 3 2 2 3 3 11 28 42 41 37 39 36 25 17 14 11 5 1 0 1
0 0 0 0 0 0 0 0 0 0 2 10 28 49 59 60 62 57 40 25 27 38 38 29 21 19 19 20 16 8 3 1 1 2 3 10 20 25 27 29 26 19 15 17 15 6 1 0 0
0 0 0 0 0 0 0 0 0 0 5 20 44 66 77 79 79 73 55 39 46 64 66 53 43 40 40 37 29 15 5 2 3 3 2 2 4 7 12 15 12 9 12 18 18 10 2 1 1
0 0 0 0 0 0 0 0 1 2 9 31 60 78 82 79 76 71 60 55 64 78 81 74 66 60 51 42 32 17 5 2 3 5 4 2 0 1 4 6 3 3 8 14 15 12 7 5 4
0 0 0 0 0 0 0 1 5 8 19 40 59 65 66 66 69 73 73 73 78 83 86 85 80 67 48 32 22 9 2 1 1 3 4 3 1 0 1 1 1 1 3 5 7 9 12 13 14
0 0 0 0 0 0 0 2 8 17 28 39 42 41 46 56 69 80 84 84 83 85 87 85 74 54 31 17 8 3 0 0 0 1 2 1 0 0 0 0 0 0 0 0 1 4 9 15 19
0 0 0 0 0 0 0 1 7 16 24 26 29 35 46 61 76 83 81 75 72 75 79 73 53 29 13 5 2 0 0 0 0 0 0 0 0 0 0 0 0 0 0 0 0 0 3 6 9
0 0 0 0 0 0 0 0 2 6 10 13 22 37 54 68 73 68 59 49 45 52 58 51 30 11 3 1 0 0 0 0 0 0 0 0 0 0 0 0 0 0 0 0 0 0 0 0 1
0 0 0 0 0 0 0 0 0 1 2 6 18 38 57 62 51 36 27 20 19 26 32 24 12 3 0 0 0 0 0 0 0 0 0 0 0 0 0 0 0 0 0 0 0 0 0 0 0
0 0 0 0 0 0 0 0 0 0 1 4 16 37 51 46 27 12 6 4 4 7 9 7 3 2 2 3 4 2 1 0 0 0 0 0 0 0 0 0 0 0 0 0 0 0 0 0 0
0 0 0 0 0 0 0 0 0 0 0 3 13 27 38 32 16 5 2 1 1 1 1 3 7 10 12 14 13 9 4 1 0 0 0 0 0 0 0 0 0 0 0 0 0 0 0 0 0
0 0 0 0 0 0 0 0 0 1 1 7 18 28 33 30 20 11 8 7 4 1 1 3 11 21 26 25 23 22 17 12 6 2 0 0 0 0 0 0 0 0 0 0 0 0 0 0 0
0 0 0 0 0 0 0 0 0 1 2 9 22 32 33 27 19 14 11 9 7 5 5 7 13 24 30 31 34 42 45 33 16 6 2 0 0 0 0 0 0 0 0 0 0 0 0 0 0
0 0 0 0 0 0 0 0 0 1 1 5 13 18 17 13 9 7 6 5 5 6 10 16 26 35 39 42 53 67 71 54 28 13 6 1 0 0 0 0 0 0 0 0 0 0 0 0 1
0 0 0 0 0 0 0 0 0 1 0 1 2 3 2 1 0 0 0 1 1 3 8 17 32 46 53 58 71 83 85 71 44 22 10 3 1 0 0 0 0 0 0 0 0 1 1 1 1
0 0 0 0 0 0 0 0 0 0 0 0 0 0 0 0 0 0 0 0 0 0 2 7 16 29 41 51 64 76 84 80 62 34 15 6 3 2 1 0 0 0 0 0 0 1 2 1 1
0 0 0 0 0 0 0 0 0 0 0 0 0 0 0 0 0 0 0 0 0 0 0 0 1 6 13 21 32 45 55 64 61 42 20 10 8 7 3 1 0 0 0 0 0 1 1 1 0
0 0 0 0 0 0 0 0 0 0 0 0 0 0 0 0 0 0 0 0 0 0 0 0 0 0 1 3 8 16 25 38 49 40 21 11 12 11 5 1 0 0 0 0 0 0 0 0 0

GEFSSGP_con_prob3kmehi_012.txt.gz
EHI
0 0 0 0 1 3 5 2 0 0 0 0 0 0 1 3 3 1 4 21 31 15 5 11 10 4 1 0 0 0 0 0 0 0 0 0 0 0 0 0 0 0 0 0 0 0 0 0 0
0 0 0 0 0 1 2 1 0 0 0 0 0 0 0 1 1 1 5 17 18 8 3 7 9 4 0 0 0 0 0 0 0 0 0 0 0 0 0 0 0 0 0 0 0 0 0 0 0
0 0 0 0 0 0 0 0 0 0 0 0 0 0 0 0 0 0 4 7 6 2 2 7 8 4 0 0 0 0 1 0 0 0 0 0 0 0 0 0 0 0 0 0 0 0 0 0 0
0 0 0 0 0 0 0 0 0 0 0 0 0 0 0 0 0 0 1 2 2 2 3 8 9 4 0 0 0 1 2 1 0 0 0 0 0 0 0 0 0 0 0 0 0 0 0 0 0
0 0 0 0 0 0 0 0 0 0 0 0 0 0 0 0 0 0 0 1 3 6 8 11 13 8 2 0 0 2 2 2 0 0 0 0 1 0 0 0 0 0 0 1 1 1 0 0 0
0 0 0 0 0 0 0 0 0 0 0 0 0 0 0 0 0 0 0 1 6 17 19 15 17 15 6 2 2 1 1 1 0 0 0 0 0 0 0 0 0 0 0 1 2 1 1 1 1
0 0 0 0 0 0 0 0 0 0 0 0 0 0 0 0 0 0 0 0 11 33 37 21 14 16 10 5 4 3 1 1 0 0 0 0 0 0 0 0 0 0 0 1 1 1 2 2 2
0 0 0 0 0 0 0 0 0 0 0 0 1 2 2 1 1 1 0 0 13 43 51 26 14 19 15 9 11 14 14 11 6 2 0 0 0 0 2 3 3 1 1 1 2 2 2 2 2
0 0 0 0 0 0 0 0 0 0 2 8 15 16 11 5 3 3 2 1 10 38 50 34 31 38 24 17 32 44 43 35 22 11 9 9 4 1 6 13 14 10 7 10 14 13 6 2 1
0 0 0 0 0 0 0 0 0 0 6 24 44 47 32 18 12 9 7 5 6 20 33 36 51 57 32 29 62 74 67 62 48 29 30 36 27 11 10 25 34 25 19 25 33 31 17 6 2
0 0 0 0 0 0 0 0 0 0 7 32 62 70 56 40 29 24 20 17 12 11 14 25 50 62 42 45 79 88 78 80 75 57 56 69 63 39 29 42 52 43 33 39 47 45 30 13 6
0 0 0 0 0 0 0 0 0 0 5 25 53 67 64 53 37 30 30 37 42 30 15 21 49 70 61 61 81 90 87 87 88 83 80 86 87 74 62 63 65 59 52 52 56 53 40 24 15
0 0 0 0 0 0 0 0 0 0 2 14 34 49 56 51 35 28 39 62 77 67 44 44 69 85 82 77 84 93 93 87 87 92 93 92 93 89 81 75 71 67 63 63 64 60 51 39 30
0 0 0 0 0 0 0 0 0 0 1 7 18 29 40 44 39 41 59 81 95 91 80 78 88 96 95 92 92 96 95 90 88 91 92 92 90 86 80 75 72 68 66 69 67 60 53 44 35
0 0 0 0 0 0 0 0 0 0 1 3 8 15 29 41 52 66 81 92 97 97 96 95 95 98 99 99 98 95 92 92 93 90 87 84 83 82 79 75 72 70 68 67 59 49 43 36 27
0 0 0 0 0 0 0 0 0 0 0 1 3 9 24 45 65 83 94 96 98 98 97 95 95 98 100 99 94 86 83 84 82 82 82 76 69 69 73 71 63 59 58 54 42 34 32 30 26
0 0 0 0 0 0 0 0 0 0 0 0 2 8 28 56 78 93 99 98 98 97 95 94 96 98 97 95 82 67 64 58 51 64 75 65 46 43 50 50 40 32 33 32 26 27 30 26 22
0 0 0 0 0 0 0 0 0 0 0 0 3 15 40 68 88 96 97 97 97 96 96 96 98 96 91 86 72 54 44 32 24 43 60 44 23 21 23 23 20 13 11 12 16 23 24 17 12
0 0 0 0 0 0 0 0 0 0 0 1 7 22 48 73 86 88 87 89 93 95 95 95 95 90 82 75 67 52 37 20 13 28 39 24 9 8 8 7 7 4 1 3 8 12 11 6 4
0 0 0 0 0 0 0 0 0 1 4 9 15 27 45 62 68 62 58 65 78 85 81 80 85 80 67 58 49 40 27 12 8 21 33 26 11 6 4 2 1 1 0 1 1 2 2 1 1
0 0 0 0 0 0 0 0 1 8 18 27 29 29 33 39 36 29 26 34 52 62 60 63 75 68 50 37 25 20 17 8 9 26 46 45 27 13 6 1 0 0 0 0 0 1 1 1 0
0 0 0 0 0 0 0 0 6 24 43 49 40 29 22 18 13 9 9 15 26 35 42 59 71 66 52 39 31 28 25 18 23 43 63 61 41 23 12 4 1 0 0 0 0 0 1 1 1
0 0 0 0 0 0 0 1 11 37 59 58 43 27 15 8 5 4 5 9 13 18 29 48 65 70 67 65 64 61 51 41 45 59 72 70 55 39 28 17 8 2 0 0 0 0 0 1 2
0 0 0 0 0 0 0 2 15 40 56 51 36 20 9 4 2 2 3 5 8 11 15 26 42 54 60 67 75 81 78 71 65 66 73 77 69 57 46 34 19 7 0 0 0 0 0 2 4
0 0 0 0 0 0 0 5 18 34 39 33 21 10 4 2 0 1 1 2 3 5 6 10 17 25 30 37 48 63 74 77 76 74 77 82 78 68 58 43 27 11 1 0 0 0 0 2 4
0 0 0 0 0 0 3 12 22 22 17 12 6 3 1 0 0 0 0 0 0 1 1 2 4 7 9 12 18 28 41 53 65 75 83 89 87 79 67 50 29 12 3 0 0 0 0 1 2
0 0 0 0 0 0 5 18 20 12 4 1 0 0 0 0 0 0 0 0 0 0 0 0 0 1 2 3 4 7 13 22 34 51 69 83 89 88 79 62 37 16 5 1 0 0 0 0 1
0 0 0 0 0 0 3 11 15 9 2 0 0 0 0 0 0 0 0 0 0 0 0 0 0 0 0 0 0 1 2 5 10 20 36 52 66 78 81 71 48 22 6 1 0 0 0 0 1
0 0 0 0 0 0 0 4 8 7 2 0 0 0 0 0 0 0 0 0 0 0 0 0 0 0 0 0 0 0 0 0 1 4 10 18 30 45 59 63 53 29 9 3 1 0 0 1 2
0 0 0 0 0 0 0 2 6 5 1 0 0 0 0 0 0 0 0 0 0 0 0 0 0 0 0 0 0 0 0 0 0 0 1 3 8 17 32 50 51 33 13 5 3 1 1 2 3

GEFSSGP_con_prob3kmehi_018.txt.gz
EHI
0 0 0 0 0 0 0 0 0 0 0 0 0 0 0 0 0 0 0 0 1 1 11 35 49 35 11 1 0 0 0 0 0 0 0 0 0 0 0 0 0 0 0 0 0 0 0 0 0
0 0 0 0 0 0 0 0 0 0 0 0 0 0 0 0 0 0 0 0 1 2 9 34 58 48 19 3 0 0 0 0 0 0 0 0 0 0 0 0 0 0 0 0 0 0 0 0 0
0 0 0 0 0 0 0 0 0 0 0 0 0 0 0 0 0 0 0 0 0 1 8 37 71 69 36 10 1 0 0 0 0 0 0 0 0 0 0 0 0 0 0 0 0 0 0 0 0
0 0 0 0 0 0 0 0 0 0 0 0 0 0 0 1 2 1 0 0 0 0 7 40 78 83 52 20 4 1 0 0 0 0 0 0 0 0 0 0 0 0 0 0 0 0 0 0 0
0 0 0 0 0 0 0 0 0 0 0 0 0 0 0 5 8 5 0 0 0 0 7 36 73 81 60 31 11 4 1 0 0 0 0 0 0 0 0 0 0 0 0 0 0 0 0 0 0
0 0 0 0 0 0 0 0 0 1 0 0 0 0 0 6 11 6 0 0 0 1 6 25 52 62 53 38 23 12 3 0 0 0 0 0 0 0 0 0 0 0 0 0 0 0 0 0 0
0 0 0 0 0 0 0 0 0 0 0 0 0 0 0 3 6 4 1 0 0 1 4 12 24 31 34 33 28 18 6 0 0 0 0 0 0 0 0 0 0 0 0 0 0 0 0 0 0
0 0 0 0 0 0 0 0 0 0 0 1 1 0 0 1 2 3 4 3 2 0 1 4 6 8 11 16 20 18 9 2 0 0 0 0 0 0 0 0 0 0 0 0 0 0 0 0 0
0 0 0 0 0 0 0 0 0 2 3 4 4 2 0 1 3 7 15 17 10 2 0 1 1 1 1 3 8 11 9 4 1 0 0 0 0 0 0 0 0 0 0 0 0 0 1 1 0
0 0 0 0 0 0 0 0 1 4 7 8 7 4 1 2 5 12 28 41 32 12 1 0 0 0 0 0 2 4 4 2 0 0 0 0 0 0 0 0 0 0 0 0 0 0 1 1 1
0 0 0 0 0 0 0 0 1 4 6 9 9 5 2 3 7 15 35 58 61 35 10 2 0 0 1 0 1 2 2 1 1 0 0 1 0 0 0 0 0 0 0 0 0 1 1 1 0
0 0 0 0 0 0 0 0 0 1 3 9 11 7 4 4 7 14 31 59 76 61 29 8 2 1 1 0 1 3 3 3 2 2 5 7 5 2 1 0 0 0 0 0 1 1 2 1 0
0 0 0 0 0 0 0 0 0 1 7 18 22 14 8 7 10 16 27 49 69 68 45 19 6 3 4 6 11 15 14 10 8 9 14 18 14 6 2 0 0 0 0 0 0 1 1 1 1
0 0 0 0 0 0 0 0 0 4 21 42 44 29 15 12 17 22 28 39 50 53 43 26 14 13 20 29 39 45 38 28 22 18 20 23 19 10 4 1 0 0 0 0 0 0 0 1 2
0 0 0 0 0 0 0 0 0 7 32 59 61 43 26 19 21 24 26 29 31 32 30 26 23 28 40 54 64 66 57 43 30 21 18 18 14 8 3 1 0 0 0 0 0 0 0 1 1
0 0 0 0 0 0 0 0 1 9 32 55 60 49 34 23 18 17 15 16 17 18 20 22 25 34 46 56 60 59 51 39 26 16 12 11 8 4 1 0 0 0 0 0 0 0 0 0 0
0 0 0 0 0 0 0 1 5 14 30 45 51 48 35 21 13 9 7 7 7 9 13 17 21 27 36 41 39 35 30 23 16 11 9 7 5 3 1 0 0 0 0 0 0 0 0 0 0
0 0 0 0 0 0 1 3 8 18 30 39 42 37 25 12 6 4 3 2 2 3 6 11 15 18 23 26 21 15 12 9 7 6 6 5 3 2 1 0 0 0 0 0 0 0 0 0 0
0 0 0 0 0 0 1 3 7 14 23 27 28 22 12 4 1 1 0 0 0 0 2 5 8 10 11 12 10 6 3 2 2 2 3 2 1 1 0 0 0 0 0 0 0 0 0 0 0
0 0 0 0 0 0 0 1 3 6 10 13 14 11 4 1 0 0 0 0 0 0 0 1 2 3 3 3 3 2 0 0 0 0 1 1 0 0 0 0 0 0 0 0 0 0 0 0 0
0 0 0 0 0 0 0 0 0 1 3 5 6 5 2 0 0 0 0 0 0 0 0 0 0 0 0 0 0 0 0 0 0 0 0 0 0 0 0 0 0 0 0 0 0 0 0 0 0
0 0 0 0 0 0 0 0 0 0 1 1 2 1 1 0 0 0 0 0 0 0 0 0 0 0 0 0 0 0 0 0 0 0 0 0 0 0 0 0 0 0 0 0 0 0 0 0 0
0 0 0 0 0 0 0 0 0 0 0 0 0 0 0 0 0 0 0 0 0 0 0 0 0 0 0 0 0 0 0 1 0 0 0 0 0 0 0 0 0 0 0 0 0 0 0 0 0
0 0 0 0 0 0 0 0 1 0 0 0 0 0 0 0 0 0 0 0 0 0 0 0 0 0 0 0 0 0 0 0 0 0 0 0 0 0 0 0 0 0 0 0 0 0 0 0 0
0 0 0 0 0 0 0 0 1 0 0 0 0 0 0 0 0 0 0 0 0 0 0 0 0 0 0 0 0 0 0 0 0 0 0 0 0 0 0 0 0 0 0 0 0 0 0 0 0
0 0 0 0 0 0 0 0 1 0 0 0 0 0 0 0 0 0 0 0 0 0 0 0 0 0 0 0 0 0 0 0 0 0 0 0 0 0 0 0 0 0 0 0 0 0 0 0 0
0 0 0 0 0 0 0 0 0 0 0 0 0 0 0 0 0 0 0 0 0 0 0 0 0 0 0 0 0 0 0 0 0 0 0 0 0 0 0 0 0 0 0 0 0 0 0 0 0
0 0 0 0 0 0 0 0 0 0 0 0 0 0 0 0 0 0 0 0 0 0 0 0 0 0 0 0 0 0 0 0 0 0 0 0 0 0 0 0 0 0 0 0 0 0 0 0 0
0 0 0 0 0 0 0 0 0 0 0 0 0 0 0 0 0 0 0 0 0 0 0 0 0 0 0 0 0 0 0 0 0 0 0 0 0 0 0 0 0 0 0 0 0 0 0 0 0
0 0 0 0 0 0 0 0 0 0 0 0 0 0 0 0 0 0 0 0 0 0 0 0 0 0 0 0 0 0 0 0 0 0 0 0 0 0 0 0 0 0 0 0 0 0 0 0 0

GEFSSGP_con_prob3kmehi_024.txt.gz
EHI
0 0 0 0 0 0 0 0 0 0 0 0 0 0 0 0 0 0 0 0 0 1 4 12 17 16 12 9 5 4 4 5 6 7 7 4 2 1 0 0 0 0 0 0 0 0 0 0 0
0 0 0 0 0 0 0 0 0 0 0 0 0 0 0 0 0 0 0 0 0 1 3 12 22 23 19 14 8 4 3 4 4 5 4 2 1 0 0 0 0 0 0 0 0 0 0 0 0
0 0 0 0 0 0 0 0 0 0 0 0 0 0 0 0 0 0 0 0 0 1 3 16 33 38 31 23 11 5 4 3 3 3 1 0 0 0 0 0 0 0 0 0 0 0 0 0 0
0 0 0 0 0 0 0 0 0 0 0 0 0 0 0 0 0 0 0 0 2 3 4 22 49 55 44 31 16 7 6 5 3 2 1 0 0 0 0 0 0 0 0 0 0 0 0 0 0
0 0 0 0 0 0 0 0 0 0 0 0 0 0 0 0 0 0 0 0 4 7 8 28 60 69 56 40 23 14 12 9 5 3 1 0 0 0 0 0 0 0 0 0 0 0 0 0 0
0 0 0 0 0 0 0 0 0 0 0 0 0 0 1 1 1 0 0 0 5 11 13 31 60 71 63 48 31 21 17 13 8 4 1 0 0 0 0 0 0 0 0 0 0 0 0 0 0
0 0 0 0 0 0 0 0 0 0 0 0 0 0 1 1 1 0 0 0 4 11 19 33 51 60 58 48 36 27 20 14 9 4 1 0 0 0 0 0 0 0 0 0 0 0 0 0 0
0 0 0 0 0 0 0 0 0 0 0 0 0 0 0 2 2 2 1 2 5 11 20 34 44 50 49 42 34 27 21 13 8 5 3 1 1 0 0 0 0 0 0 0 0 0 0 0 0
0 0 0 0 0 0 0 0 0 0 0 0 0 0 4 10 12 8 5 5 7 10 17 26 35 42 42 35 25 20 17 12 8 6 5 5 3 1 0 0 0 0 0 0 0 0 0 0 0
0 0 0 0 0 0 0 0 0 0 0 0 0 3 13 24 26 21 17 14 11 10 12 16 22 29 33 29 22 17 16 14 11 9 9 10 7 2 0 0 0 0 0 0 0 0 0 0 0
0 0 0 0 0 0 0 0 0 0 0 0 1 6 21 35 38 37 34 26 16 9 7 9 13 17 23 24 23 22 23 22 19 16 14 13 11 6 2 0 0 0 0 0 0 0 0 0 0
0 0 0 0 0 0 0 0 0 1 1 3 7 13 24 38 45 43 41 33 20 9 4 4 6 11 15 16 17 20 23 24 23 19 14 13 12 9 4 1 0 1 1 0 0 1 0 0 0
0 0 0 0 0 0 0 0 1 2 5 11 18 22 27 35 39 36 34 31 21 9 3 1 3 6 8 8 9 10 13 15 16 15 11 8 8 6 3 2 1 1 1 0 0 0 0 0 0
0 0 0 0 0 0 0 1 1 3 8 17 24 28 29 29 26 21 18 18 15 9 4 2 2 3 4 4 4 4 5 5 7 8 7 5 4 2 1 1 0 1 1 0 0 0 0 1 1
0 0 0 0 0 0 0 1 1 2 7 14 19 23 24 22 16 10 7 6 6 5 4 3 3 3 2 1 3 4 3 2 2 3 4 3 2 1 1 1 0 0 0 0 0 0 0 0 0
0 0 0 0 0 0 0 1 1 1 3 7 10 11 13 12 9 5 2 2 1 1 2 3 3 3 2 2 4 5 4 3 1 1 2 1 1 1 2 1 0 0 0 0 0 0 0 0 0
0 0 0 0 0 0 0 0 0 0 0 2 3 3 3 3 3 2 1 1 0 0 0 1 2 2 2 3 4 5 6 4 1 0 1 1 0 0 1 1 0 0 0 0 0 0 0 0 0
0 0 0 0 0 0 0 0 0 0 0 0 0 0 0 0 0 0 0 0 0 0 0 0 1 1 2 2 2 3 3 2 0 0 0 1 0 0 0 0 0 0 0 0 0 0 0 0 0
0 0 0 0 0 0 0 0 0 0 0 0 0 0 0 0 0 0 0 0 0 0 0 0 0 0 1 1 0 1 1 0 0 0 0 0 0 0 0 0 0 0 0 0 0 0 0 0 0
0 0 0 0 0 0 0 0 0 0 0 0 0 0 0 0 0 0 0 0 0 0 0 0 0 0 0 0 0 0 0 0 0 0 0 0 0 0 0 0 0 0 0 0 0 0 0 0 0
0 0 0 1 0 0 0 0 0 0 0 0 0 0 0 0 0 0 0 0 0 0 0 0 0 0 0 0 0 0 0 0 0 0 0 0 0 0 0 0 0 0 0 0 0 0 0 0 0
0 0 1 2 1 0 0 0 0 0 0 0 0 0 0 0 0 0 0 0 0 0 0 0 0 0 0 0 0 0 0 0 0 0 0 0 0 0 0 0 0 0 0 0 0 0 0 0 0
0 0 0 1 0 0 0 0 0 0 0 0 0 0 0 0 0 0 0 0 0 0 0 0 0 0 0 0 0 0 0 0 0 0 0 0 0 0 0 0 0 0 0 0 0 0 0 0 0
0 0 0 0 0 0 0 0 0 0 0 0 0 0 0 0 0 0 0 0 0 0 0 0 0 0 0 0 0 0 0 0 0 0 0 0 0 0 0 0 0 0 0 0 0 0 0 0 0
0 0 0 0 0 0 0 0 0 0 0 0 0 0 0 0 0 0 0 0 0 0 0 0 0 0 0 0 0 0 0 0 0 0 0 0 0 0 0 0 0 0 0 0 0 0 0 0 0
0 0 0 0 0 0 0 0 0 0 0 0 0 0 0 0 0 0 0 0 0 0 0 0 0 0 0 0 0 0 0 0 0 0 0 0 0 0 0 0 0 0 0 0 0 0 0 0 0
0 0 0 0 0 0 0 0 0 0 0 0 0 0 0 0 0 0 0 0 0 0 0 0 0 0 0 0 0 0 0 0 0 0 0 0 0 0 0 0 0 0 0 0 0 0 0 0 0
0 0 0 0 0 0 0 0 0 0 0 0 0 0 0 0 0 0 0 0 0 0 0 0 0 0 0 0 0 0 0 0 0 0 0 0 0 0 0 0 0 0 0 0 0 0 0 0 0
0 0 0 0 0 0 0 0 0 0 0 0 0 0 0 0 0 0 0 0 0 0 0 0 0 0 0 0 0 0 0 0 0 0 0 0 0 0 0 0 0 0 0 0 0 0 0 0 0
0 0 0 0 0 0 0 0 0 0 0 0 0 0 0 0 0 0 0 0 0 0 0 0 0 0 0 0 0 0 0 0 0 0 0 0 0 0 0 0 0 0 0 0 0 0 0 0 0

GEFSSGP_con_prob3kmehi_030.txt.gz
EHI
0 0 0 0 0 0 0 0 0 0 0 0 0 0 0 0 0 0 0 0 10 38 55 37 13 3 0 0 0 0 1 5 13 26 33 27 14 5 2 1 0 0 0 0 0 0 0 0 0
0 0 0 0 0 0 0 0 0 0 0 0 0 0 0 0 0 0 0 0 6 26 42 32 14 4 0 0 0 1 2 5 12 22 26 20 10 3 1 0 0 0 0 0 0 0 0 0 0
0 0 0 0 0 0 0 0 0 0 0 0 0 0 0 0 0 0 0 0 2 11 26 30 18 4 0 0 0 1 2 4 8 12 13 9 4 1 0 0 0 0 0 0 0 0 0 0 0
0 0 0 0 0 0 0 0 0 0 0 0 0 0 0 0 0 0 0 0 0 3 14 24 18 4 0 0 0 0 1 1 2 4 3 2 0 0 0 0 0 0 0 0 0 0 0 0 0
0 0 0 0 0 0 0 0 0 0 0 0 0 0 0 0 0 0 0 0 0 0 6 15 12 4 1 1 1 1 0 0 0 1 1 0 0 0 0 0 0 0 0 0 0 0 0 0 0
0 0 0 0 0 0 0 0 0 0 0 0 0 0 0 1 2 2 2 1 0 1 4 9 8 4 3 2 2 2 1 1 0 0 0 0 0 0 0 0 0 0 0 1 1 1 1 1 1
0 0 0 0 0 0 0 0 0 0 0 0 0 0 2 6 13 17 15 9 4 3 4 5 6 5 6 6 7 7 6 4 2 1 0 0 0 0 0 0 0 1 1 2 2 2 2 2 2
0 0 0 0 0 0 0 0 0 0 0 0 0 1 8 24 38 44 40 29 18 12 10 9 9 11 12 14 16 17 17 14 8 4 2 1 1 0 0 0 1 2 2 3 3 3 3 3 3
0 0 0 0 0 0 0 0 0 0 1 1 1 3 18 42 59 63 60 52 41 31 26 22 21 22 19 19 24 27 27 24 17 12 10 9 5 2 1 3 6 4 2 2 3 3 3 3 3
0 0 0 0 0 0 0 0 0 1 2 5 5 6 17 38 54 61 62 60 53 46 39 34 31 28 24 23 30 34 33 31 26 22 25 25 18 12 8 11 14 9 3 3 3 3 3 3 3
0 0 0 0 0 0 0 0 0 1 4 7 8 7 12 24 40 52 57 55 50 44 37 32 33 31 26 27 34 38 39 38 35 32 36 40 40 33 28 28 27 21 17 14 12 10 6 4 4
0 0 0 0 0 0 0 0 0 1 3 8 11 13 18 28 42 52 54 50 45 38 29 25 27 27 26 27 32 35 37 38 38 38 42 49 56 52 48 49 45 39 36 31 26 19 10 6 6
0 0 0 0 0 0 0 0 1 2 4 10 19 27 34 43 53 58 56 50 44 37 28 20 17 18 19 21 23 25 28 29 31 34 38 45 53 55 55 59 57 47 41 39 33 22 14 11 10
0 0 0 0 0 0 0 1 2 4 6 13 25 33 38 43 48 50 48 44 40 34 24 15 10 9 11 14 15 15 17 19 19 21 24 29 38 46 53 57 53 40 34 36 32 21 14 13 13
0 0 0 0 0 0 0 1 2 4 5 11 17 21 23 25 25 26 27 26 25 21 15 9 5 4 4 7 8 9 10 11 11 10 11 16 24 35 44 48 43 34 28 30 27 19 14 12 10
0 0 0 0 0 0 0 1 1 2 3 5 6 6 7 7 7 7 8 9 8 8 8 6 4 3 2 3 4 5 6 7 7 7 8 11 16 23 29 32 31 27 22 20 18 15 13 9 6
0 0 0 0 0 0 0 0 0 0 1 1 1 1 1 1 1 1 1 1 1 2 4 6 5 3 2 2 2 2 3 3 5 6 7 9 11 15 19 21 20 17 14 12 11 12 10 6 3
0 0 0 0 0 0 0 0 0 0 0 0 0 0 0 0 0 0 0 0 0 0 1 3 3 2 1 1 1 1 1 1 2 4 5 6 7 10 13 14 12 10 8 7 7 7 6 3 1
0 0 0 0 0 0 0 0 0 0 0 0 0 0 0 0 0 0 0 0 0 0 0 1 1 0 0 0 0 2 2 1 1 2 2 2 3 5 8 10 9 9 7 4 3 3 2 1 1
0 0 0 0 0 0 0 0 0 0 0 0 0 0 0 0 0 0 0 0 0 0 0 0 0 0 0 0 0 1 2 1 0 0 0 0 1 1 4 8 9 10 7 3 1 0 0 0 1
0 0 0 0 0 0 0 0 0 0 0 0 0 0 0 0 0 0 0 0 0 0 0 0 0 0 0 0 0 0 0 0 0 0 0 0 0 0 1 4 7 8 7 3 1 0 0 0 0
0 0 0 0 0 0 0 0 1 0 0 0 0 0 0 0 0 0 0 0 0 0 0 0 0 0 0 0 0 0 0 0 0 0 0 0 0 0 0 0 2 4 4 3 1 0 0 0 0
0 0 0 0 0 0 0 1 2 1 0 0 0 0 0 0 0 0 0 0 0 0 0 0 0 0 0 0 0 0 0 0 0 0 0 0 0 0 0 0 0 1 2 2 1 0 0 0 0
0 0 0 0 0 0 0 2 4 3 1 0 0 0 0 0 0 0 0 0 0 0 0 0 0 0 0 0 0 0 0 0 0 0 0 0 0 0 0 0 0 0 0 1 1 0 0 0 0
0 0 0 0 0 0 0 2 5 5 1 0 0 0 0 0 0 0 0 0 0 0 0 0 0 0 0 0 0 0 0 0 0 0 0 0 0 0 0 0 0 0 0 0 0 0 0 1 1
0 0 0 0 0 0 0 3 5 3 1 0 0 0 0 0 0 0 0 0 0 0 0 0 0 0 0 0 0 0 0 0 0 0 0 0 0 0 0 0 0 0 0 0 0 0 0 0 0
0 0 0 0 0 0 1 3 3 1 0 0 0 0 0 0 0 0 0 0 0 0 0 0 0 0 0 0 0 0 0 0 0 0 0 0 0 0 0 0 0 0 0 0 0 0 0 0 0
0 0 0 0 0 0 0 1 1 0 0 0 0 0 0 0 0 0 0 0 0 0 0 0 0 0 0 0 0 0 0 0 0 0 0 0 0 0 0 0 0 0 0 0 0 0 0 0 0
0 0 0 0 0 0 0 0 0 0 0 0 0 0 0 0 0 0 0 0 0 0 0 0 0 0 0 0 0 0 0 0 0 0 0 0 0 0 0 0 0 0 0 0 0 0 0 0 0
0 0 0 0 0 0 0 0 0 0 0 0 0 0 0 0 0 0 0 0 0 0 0 0 0 0 0 0 0 0 0 0 0 0 0 0 0 0 0 0 0 0 0 0 0 0 0 0 0

GEFSSGP_con_prob3kmehi_036.txt.gz
EHI
0 0 0 1 5 7 4 1 0 0 0 0 0 0 1 2 4 4 17 55 82 70 44 35 34 26 16 9 3 1 0 0 0 0 0 0 0 0 0 0 0 0 0 0 0 0 0 0 0
0 0 0 1 3 3 2 0 0 0 0 0 0 0 1 3 4 3 18 53 73 57 34 29 30 21 13 8 4 2 1 1 1 1 0 0 0 0 0 0 0 0 0 0 0 0 0 0 0
0 0 0 0 0 0 0 0 0 0 0 0 0 1 1 2 2 2 17 47 61 47 31 30 27 16 7 5 4 3 3 3 3 3 1 0 0 0 0 0 0 0 0 0 0 0 0 0 0
0 0 0 0 0 0 0 0 0 0 0 0 2 4 3 1 1 2 15 39 52 45 37 33 27 14 4 3 3 3 4 4 3 3 2 1 1 0 0 0 0 0 0 0 0 0 0 0 0
0 0 0 0 0 0 0 0 0 0 0 0 5 9 6 1 0 1 10 27 41 49 45 34 26 15 4 2 2 2 3 3 3 2 2 2 1 0 0 0 0 0 0 0 0 0 0 0 0
0 0 0 0 0 0 0 0 0 0 0 1 8 14 9 1 0 0 4 12 32 55 52 32 22 14 5 1 1 1 1 1 2 1 1 1 0 0 1 1 1 0 1 1 1 1 2 2 3
0 0 0 0 0 0 0 0 0 0 2 4 10 17 14 6 1 0 0 6 31 57 52 25 12 10 5 3 2 2 2 2 2 1 0 0 0 1 2 3 2 2 4 6 6 8 10 11 13
0 0 0 0 0 0 0 0 1 3 9 13 19 27 26 13 2 0 0 6 29 50 41 18 9 8 7 7 8 7 7 7 6 4 3 2 2 3 4 6 6 7 11 16 19 21 26 29 29
0 0 0 0 0 0 0 1 2 8 17 25 30 37 33 17 5 3 4 8 22 34 28 20 19 17 11 14 19 18 15 16 15 12 12 11 8 6 9 14 21 23 26 32 38 41 46 45 41
0 0 0 0 0 0 0 1 5 14 25 33 38 39 33 23 16 16 17 17 20 25 29 33 37 34 26 28 35 27 24 32 30 26 30 31 23 15 16 29 45 50 48 52 59 61 60 51 40
0 0 0 0 0 0 0 3 12 25 35 42 47 48 44 42 43 44 44 42 41 42 47 51 53 51 45 44 44 37 34 42 45 42 49 54 47 35 31 45 64 70 69 71 74 74 66 49 35
0 0 0 0 0 0 0 6 21 34 41 50 60 66 67 70 75 77 76 75 73 71 69 68 66 63 56 48 46 45 41 42 46 50 56 63 65 59 52 56 66 71 75 77 77 74 65 50 39
0 0 0 0 0 0 1 8 21 32 38 49 63 73 80 86 90 92 93 92 89 85 80 74 68 63 56 48 45 45 41 36 41 49 53 58 63 63 61 60 58 57 60 63 62 58 54 50 46
0 0 0 0 0 0 3 11 20 26 31 39 50 60 69 76 80 83 85 84 81 77 72 65 57 51 49 46 42 36 31 31 37 44 46 46 48 50 53 53 49 42 37 38 37 34 34 37 39
0 0 0 0 0 1 7 17 23 22 21 25 31 39 47 52 57 61 63 63 61 59 56 49 40 36 38 37 31 25 23 26 33 36 34 33 34 36 39 39 36 29 22 20 20 17 17 19 21
0 0 0 0 0 0 8 20 23 16 13 14 17 20 25 29 33 35 37 39 40 41 41 36 28 25 26 24 19 15 17 23 26 25 25 24 23 23 23 22 21 18 15 13 12 10 9 9 10
0 0 0 0 0 1 10 20 17 10 8 8 8 8 11 14 15 15 16 19 22 24 25 24 20 18 16 13 9 8 10 14 17 21 24 22 16 12 11 10 10 10 9 9 8 7 6 5 6
0 0 0 0 0 4 14 20 14 7 6 5 4 3 5 6 5 4 5 6 8 10 13 14 14 13 10 5 3 2 4 5 9 15 21 19 12 7 6 6 7 7 5 5 5 5 4 3 3
0 0 0 1 1 5 13 16 12 7 5 4 2 1 2 3 2 1 1 2 3 5 7 8 10 10 8 4 2 1 1 2 3 7 11 11 7 5 6 7 8 7 5 5 5 4 2 1 1
0 0 1 2 1 3 8 11 10 6 4 2 1 0 1 2 1 0 1 2 3 5 5 6 8 8 6 4 2 1 0 0 1 2 3 3 3 4 5 7 7 6 7 7 6 3 1 0 1
0 0 0 1 0 1 3 7 8 5 2 1 1 1 1 0 0 0 1 1 2 4 5 7 9 8 5 3 2 0 0 0 0 1 1 0 0 1 3 4 5 5 6 7 7 5 3 2 2
0 0 0 0 0 0 1 4 7 6 3 2 3 3 1 0 0 0 0 0 0 2 4 7 10 9 5 3 1 0 0 0 0 0 0 0 0 0 1 2 2 3 3 4 6 6 5 3 2
0 0 0 0 0 0 0 2 5 6 5 5 4 3 1 0 0 0 0 0 0 0 2 6 9 9 6 3 1 0 0 0 0 0 0 0 0 0 0 0 1 1 1 2 3 4 4 3 1
0 0 0 0 0 0 0 1 3 5 6 6 3 1 1 0 0 0 0 0 0 0 1 3 5 6 4 2 1 0 0 0 0 0 0 0 0 0 0 0 0 0 0 1 1 1 1 1 1
0 0 0 0 0 0 0 1 3 4 5 5 3 1 0 0 0 0 0 0 0 0 0 1 1 2 1 0 0 0 0 0 0 0 0 0 0 0 0 0 0 0 0 0 0 0 0 0 0
0 0 0 0 0 0 1 3 4 2 2 3 2 1 0 0 0 0 0 0 0 0 0 0 0 0 0 0 0 0 0 0 0 0 0 0 0 0 0 0 0 0 0 0 0 0 0 0 0
0 0 0 0 0 0 2 4 3 1 1 1 1 0 0 0 0 0 0 0 0 0 0 0 0 0 0 0 0 0 0 0 0 0 0 0 0 0 0 0 0 0 0 0 0 0 0 0 0
0 0 0 0 0 0 1 2 1 0 0 0 0 0 0 0 0 0 0 0 0 0 0 0 0 0 0 0 0 0 0 0 0 0 0 0 0 0 0 0 0 0 0 0 0 0 0 0 0
0 0 0 0 0 0 0 0 0 0 0 0 0 0 0 0 0 0 0 0 0 0 0 0 0 0 0 0 0 0 0 0 0 0 0 0 0 0 0 0 0 0 0 0 0 0 0 0 0
0 0 0 0 0 0 0 0 0 0 0 0 0 0 0 0 0 0 0 0 0 0 0 0 0 0 0 0 0 0 0 0 0 0 0 0 0 0 0 0 0 0 0 0 0 0 0 0 0

GEFSSGP_con_prob3kmehi_042.txt.gz
EHI
0 0 0 0 0 0 0 0 0 0 0 1 2 2 1 1 1 0 4 20 48 64 56 50 61 73 79 77 66 47 26 10 3 2 1 0 0 0 0 0 0 0 0 0 0 0 0 0 0
0 0 0 0 0 0 0 0 0 0 1 1 1 1 1 2 2 1 4 19 43 57 51 49 63 75 79 80 73 57 36 18 8 4 1 0 0 0 0 0 0 0 0 0 0 0 0 0 0
0 0 0 0 0 0 0 0 1 2 3 2 1 0 1 2 4 3 6 17 33 41 42 48 63 72 76 81 80 70 52 32 17 8 4 1 1 0 0 0 0 0 0 0 0 0 0 0 0
0 0 0 0 0 0 0 1 3 5 5 4 2 0 0 3 9 10 9 14 24 29 31 43 58 66 70 76 78 74 63 46 29 16 9 5 2 1 0 0 0 0 0 1 1 1 0 0 0
0 0 0 0 0 0 0 3 8 11 9 6 2 1 1 7 17 18 10 9 18 23 23 32 47 56 60 65 66 65 60 50 36 22 14 8 4 1 0 0 0 0 1 2 2 1 0 0 0
0 0 0 0 0 0 1 6 15 22 20 12 5 3 4 10 20 22 13 7 10 14 14 19 29 38 42 45 46 44 41 36 28 20 13 7 3 1 0 0 1 1 2 3 2 0 0 0 0
0 0 0 0 0 0 3 10 23 33 33 22 11 7 6 10 22 29 24 13 7 7 7 9 13 17 20 22 22 20 18 17 14 12 9 5 2 1 0 0 1 2 2 3 3 2 2 1 1
0 0 0 0 0 1 8 21 33 44 43 32 21 15 11 18 37 48 42 27 14 7 5 5 5 6 6 7 6 6 6 5 6 6 6 4 2 1 0 1 2 3 3 3 4 5 6 5 3
0 0 0 0 0 3 15 32 46 54 55 47 38 31 30 41 60 70 61 44 27 16 9 6 5 4 2 1 1 2 2 2 2 3 4 3 2 1 1 3 4 3 3 3 6 9 11 12 11
0 0 0 0 1 6 22 40 53 63 66 62 57 55 58 67 78 81 74 60 44 32 23 18 15 10 5 2 1 2 2 2 3 2 3 4 3 3 4 5 5 4 4 6 10 15 18 23 26
0 0 0 0 2 9 25 42 54 63 68 67 68 73 78 82 84 82 77 69 59 51 44 37 31 23 14 9 7 5 4 5 6 5 5 6 7 6 5 4 4 5 7 11 16 19 22 28 34
0 0 0 0 4 14 30 45 53 59 62 63 70 78 84 85 82 77 72 65 58 55 53 48 42 34 27 20 15 11 10 11 12 9 9 9 9 7 5 2 1 3 8 13 17 17 17 22 26
0 0 0 1 7 22 40 49 50 50 50 52 60 70 78 80 75 68 61 53 48 47 47 44 39 33 27 21 17 15 13 13 13 12 9 8 9 7 4 2 1 1 3 7 9 9 10 13 14
0 0 0 2 9 24 42 48 44 38 36 37 44 53 61 64 61 54 47 40 37 36 33 29 25 21 17 14 13 13 11 8 8 7 6 5 5 5 3 2 1 0 0 1 2 3 4 7 8
0 0 0 1 6 17 30 38 33 26 23 24 28 36 41 42 40 37 32 27 23 20 17 13 11 11 9 7 8 8 5 2 1 2 1 1 2 2 1 1 0 0 0 0 0 1 2 2 3
0 0 0 0 2 7 18 25 22 15 12 13 17 21 23 22 22 22 19 14 9 7 6 6 6 6 5 3 4 3 1 0 0 0 0 0 0 0 0 0 0 0 0 0 0 0 0 0 1
0 0 0 1 1 3 8 14 12 7 4 5 7 9 10 10 11 10 8 5 3 3 3 3 3 2 1 1 1 1 0 0 0 0 0 0 0 0 0 0 0 0 0 0 0 0 0 0 0
0 0 0 1 2 2 4 6 5 3 1 1 1 2 3 4 3 3 2 1 1 1 1 1 1 0 0 0 0 0 0 0 0 0 0 0 0 0 0 0 0 0 0 0 0 0 0 0 0
0 0 0 0 1 2 1 2 3 2 1 0 0 0 1 1 0 0 0 0 0 0 0 0 0 0 0 0 0 0 0 0 0 0 0 0 0 0 0 0 0 0 0 0 0 0 0 0 0
0 0 0 0 0 1 1 1 2 2 1 0 0 0 0 0 0 0 0 0 0 0 0 0 0 0 0 0 0 0 0 0 0 0 0 0 0 0 0 0 0 0 0 0 0 0 0 0 0
0 0 0 0 0 0 1 1 1 1 1 0 0 0 0 1 1 0 0 0 0 0 0 0 0 0 0 0 0 0 0 0 0 0 0 0 0 0 0 0 0 0 0 0 0 0 0 0 0
0 0 0 0 0 0 1 1 0 0 0 0 0 0 0 1 1 1 0 0 0 0 0 0 0 0 0 0 0 0 0 0 0 0 0 0 0 0 0 0 0 0 0 0 0 0 0 0 0
0 0 0 0 0 0 0 0 0 0 0 0 0 0 0 1 1 1 0 0 0 0 0 0 0 0 0 0 0 0 0 0 0 0 0 0 0 0 0 0 0 0 0 0 0 0 0 0 0
0 0 0 0 0 0 0 0 0 0 0 0 0 0 0 0 0 0 0 0 0 0 0 0 0 0 0 0 0 0 0 0 0 0 0 0 0 0 0 0 0 0 0 0 0 0 0 0 0
0 0 0 0 0 0 0 0 0 0 0 0 0 0 0 0 0 0 0 0 0 0 0 0 0 0 0 0 0 0 0 0 0 0 0 0 0 0 0 0 0 0 0 0 0 0 0 0 0
0 0 0 0 0 0 0 0 0 0 0 0 0 0 0 0 0 0 0 0 0 0 0 0 0 0 0 0 0 0 0 0 0 0 0 0 0 0 0 0 0 0 0 0 0 0 0 0 0
0 0 0 0 0 0 0 0 0 0 0 0 0 0 0 0 0 0 0 0 0 0 0 0 0 0 0 0 0 0 0 0 0 0 0 0 0 0 0 0 0 0 0 0 0 0 0 0 0
0 0 0 0 0 0 0 0 0 0 0 0 0 0 0 0 0 0 0 0 0 0 0 0 0 0 0 0 0 0 0 0 0 0 0 0 0 0 0 0 0 0 0 0 0 0 0 0 0
0 0 0 0 0 0 0 0 0 0 0 0 0 0 0 0 0 0 0 0 0 0 0 0 0 0 0 0 0 0 0 0 0 0 0 0 0 0 0 0 0 0 0 0 0 0 0 0 0
0 0 0 0 0 0 0 0 0 0 0 0 0 0 0 0 0 0 0 0 0 0 0 0 0 0 0 0 0 0 0 0 0 0 0 0 0 0 0 0 0 0 0 0 0 0 0 0 0